Tracking 25734 objects as of 26-May-2022
HD Live streaming from Space Station
objects crossing your sky now

FLOCK 3P 51

Track FLOCK 3P 51 now!
10-day predictions
FLOCK 3P 51 is classified as:


NORAD ID: 41952
Int'l Code: 2017-008E
Perigee: 460.3 km
Apogee: 466.2 km
Inclination: 97.3 °
Period: 93.7 minutes
Semi major axis: 6834 km
RCS: Unknown
Launch date: February 15, 2017
Source: United States (US)
Launch site: SRIHARIKOTA (SRI)
aabbcc
Your satellite tracking list
Your tracking list is empty




NASA's NSSDC Master Catalog

Two Line Element Set (TLE):
1 41952U 17008E   22146.16332152  .00033957  00000-0  94854-3 0  9995
2 41952  97.2805 213.5727 0004269 317.6733  42.4181 15.36624395293707
Source of the keplerian elements: AFSPC